Date,TemperatureHighF,TemperatureAvgF,TemperatureLowF,DewpointHighF,DewpointAvgF,DewpointLowF,HumidityHigh,HumidityAvg,HumidityLow,PressureMaxIn,PressureMinIn,WindSpeedMaxMPH,WindSpeedAvgMPH,GustSpeedMaxMPH,PrecipitationSumIn
2013-2-20,43,34,24,31,28,24,100,82,50,0.00,40.00,2,1,11,0.00
2013-2-21,36,32,29,33,31,29,100,98,88,0.00,40.00,2,2,9,0.05
2013-2-22,34,32,29,34,32,28,100,99,96,0.00,40.00,3,2,18,0.01
2013-2-23,39,31,28,31,29,28,100,93,65,0.00,40.00,3,2,15,0.22
2013-2-24,42,33,29,35,31,29,100,94,72,0.00,40.00,2,1,8,0.28
2013-2-25,36,32,29,33,31,28,100,96,84,0.00,40.00,3,2,17,0.13
2013-2-26,43,32,26,34,30,26,100,94,62,0.00,40.00,2,1,11,0.43
2013-2-27,52,35,27,38,33,27,100,91,53,0.00,40.00,2,1,10,0.46
2013-2-28,46,36,32,44,36,32,100,99,91,0.00,40.00,2,1,8,0.67
2013-3-1,52,40,32,45,38,32,100,93,69,0.00,40.00,4,2,12,0.08
2013-3-2,52,38,32,42,35,32,100,92,62,0.00,40.00,5,2,18,0.04
2013-3-3,42,32,22,32,26,22,100,80,46,0.00,40.00,4,2,16,0.09
2013-3-4,48,31,20,23,18,6,100,65,19,0.00,40.00,4,2,23,0.01
2013-3-5,39,33,27,34,26,18,99,78,50,0.00,40.00,3,2,16,0.00
2013-3-6,40,34,32,36,32,29,100,92,82,0.00,40.00,3,2,16,0.13
2013-3-7,54,36,27,35,31,26,100,84,36,0.00,40.00,3,1,11,0.09
2013-3-8,59,33,23,34,26,23,100,83,27,0.00,40.00,3,1,11,0.05
2013-3-9,58,35,22,28,21,7,100,71,14,0.00,40.00,4,2,14,0.00
2013-3-10,45,35,26,38,32,26,100,91,60,0.00,40.00,2,1,10,0.02
2013-3-11,52,39,33,42,37,33,100,94,67,0.00,40.00,2,1,6,0.13
2013-3-12,52,40,33,44,37,33,100,90,58,0.00,40.00,3,2,16,0.21
2013-3-13,58,42,35,47,40,35,100,93,64,0.00,40.00,2,1,7,0.02
2013-3-14,55,41,34,45,35,27,100,84,34,0.00,40.00,5,2,21,0.03
2013-3-15,54,41,32,44,37,32,100,89,55,0.00,40.00,2,1,12,0.04
2013-3-16,42,35,29,39,34,28,100,96,83,0.00,40.00,3,2,15,0.10
2013-3-17,38,31,28,31,29,27,100,92,69,0.00,40.00,3,2,13,0.06
2013-3-18,42,32,26,36,31,26,100,94,77,0.00,40.00,3,2,12,0.39
2013-3-19,48,32,24,33,29,24,100,90,48,0.00,40.00,3,2,15,0.03
2013-3-20,41,34,28,40,34,28,100,98,86,0.00,40.00,4,2,26,1.51
2013-3-21,42,30,27,33,29,26,100,93,69,0.00,40.00,4,2,17,0.16
2013-3-22,41,30,25,28,26,23,100,86,52,0.00,40.00,3,2,12,0.38
2013-3-23,57,28,21,31,24,20,100,89,32,0.00,40.00,2,1,8,0.34
2013-3-24,45,31,21,31,25,21,100,82,45,0.00,40.00,3,2,15,0.13
2013-3-25,55,36,23,32,27,23,100,77,32,0.00,40.00,3,2,16,0.06
2013-3-26,55,40,32,40,34,32,100,83,44,0.00,40.00,2,1,8,0.01
2013-3-27,55,40,32,41,35,32,100,87,53,0.00,40.00,2,1,7,0.00
2013-3-28,56,47,32,43,39,32,100,75,49,0.00,40.00,1,1,9,0.05
2013-3-29,67,42,31,40,34,31,100,81,29,0.00,40.00,3,1,11,0.00
2013-3-30,73,44,30,43,34,30,100,80,27,0.00,40.00,3,2,14,0.00
2013-3-31,78,47,32,39,34,28,100,71,16,0.00,40.00,3,2,12,0.00
2013-4-1,67,46,31,45,39,31,100,81,41,0.00,40.00,4,2,18,0.00
2013-4-2,54,44,36,46,41,36,100,92,66,0.00,40.00,3,1,10,0.00
2013-4-3,66,45,33,41,36,33,100,76,30,0.00,40.00,2,1,11,0.00
2013-4-4,50,44,35,49,42,34,100,96,87,0.00,40.00,4,2,16,0.54
2013-4-5,48,42,36,45,41,36,100,97,84,0.00,40.00,4,2,20,0.81
2013-4-6,47,38,33,41,37,33,100,97,76,0.00,40.00,3,2,24,0.98
2013-4-7,44,36,32,41,35,32,100,97,82,0.00,40.00,3,2,17,0.82
2013-4-8,46,37,32,41,35,32,100,95,79,0.00,40.00,3,1,13,0.24
2013-4-9,57,41,32,40,36,32,100,84,41,0.00,40.00,3,1,9,0.02
2013-4-10,48,40,34,44,38,32,100,93,76,0.00,40.00,5,2,27,0.25
2013-4-11,48,37,29,40,34,29,100,90,56,0.00,40.00,3,1,13,0.05
2013-4-12,50,34,28,37,31,25,100,89,38,0.00,40.00,3,1,16,0.20
2013-4-13,38,32,28,34,31,28,100,95,75,0.00,40.00,4,2,18,0.45
2013-4-14,47,36,28,36,32,28,100,88,59,0.00,40.00,2,1,12,0.26
2013-4-15,50,34,29,36,31,27,100,89,51,0.00,40.00,3,1,11,0.14
2013-4-16,43,34,27,37,31,27,100,91,57,0.00,40.00,2,1,10,0.03
2013-4-17,56,37,23,36,29,23,100,79,34,0.00,40.00,3,2,12,0.02
2013-4-18,47,39,33,42,37,33,100,93,79,0.00,40.00,2,1,10,0.06
2013-4-19,47,40,36,46,40,36,100,99,96,0.00,40.00,2,1,13,0.82
2013-4-20,47,40,36,43,39,36,100,97,84,0.00,40.00,3,2,14,0.32
2013-4-21,49,40,34,40,37,34,100,91,68,0.00,40.00,4,2,15,0.04
2013-4-22,61,42,28,36,28,19,100,71,20,0.00,40.00,3,2,13,0.03
2013-4-23,61,41,27,35,29,23,100,71,29,0.00,40.00,4,2,12,0.00
2013-4-24,71,50,29,34,29,23,99,57,19,0.00,40.00,3,2,14,0.00
2013-4-25,73,57,32,44,37,30,100,54,28,0.00,40.00,4,2,16,0.00
2013-4-26,77,61,32,42,33,23,100,46,14,0.00,40.00,4,2,13,0.00
2013-4-27,67,47,32,44,38,31,100,79,26,0.00,40.00,4,2,16,0.03
2013-4-28,59,45,39,48,41,38,100,90,47,0.00,40.00,5,2,15,0.11
2013-4-29,43,39,34,40,37,33,100,94,67,0.00,40.00,3,2,21,0.43
2013-4-30,49,39,28,31,26,23,100,63,42,0.00,40.00,4,2,13,0.01
2013-5-1,68,43,23,38,25,14,100,64,15,0.00,40.00,3,1,13,0.01
2013-5-2,78,52,31,42,31,21,95,57,14,0.00,40.00,3,2,13,0.00
2013-5-3,78,56,32,42,38,32,100,60,21,0.00,40.00,4,2,14,0.00
2013-5-4,75,60,35,42,34,29,100,46,19,0.00,40.00,5,3,24,0.00
2013-5-5,80,61,37,37,31,27,82,37,16,0.00,40.00,4,3,22,0.00
2013-5-6,86,63,38,45,38,33,84,48,16,0.00,40.00,3,2,12,0.00
2013-5-7,81,66,36,50,46,36,100,54,29,0.00,40.00,4,2,18,0.00
2013-5-8,78,59,43,52,48,43,100,71,39,0.00,40.00,4,2,15,0.00
2013-5-9,86,59,41,53,46,41,100,71,28,0.00,40.00,3,2,14,0.00
2013-5-10,90,71,39,50,42,-100,96,44,20,0.00,40.00,3,2,12,0.00
2013-5-11,86,68,46,50,43,-100,92,49,21,0.00,40.00,5,2,17,0.00
2013-5-12,67,55,46,55,50,42,100,82,58,0.00,40.00,4,2,15,0.03
2013-5-13,60,48,34,52,47,34,100,95,68,0.00,40.00,6,2,23,0.22
2013-5-14,62,44,32,38,34,30,100,76,34,0.00,40.00,3,2,13,0.11
2013-5-15,56,43,33,48,40,33,100,91,52,0.00,40.00,2,1,9,0.03
2013-5-16,65,44,40,54,24,-100,100,87,44,0.00,40.00,3,1,11,0.48
2013-5-17,50,45,42,47,38,-100,100,95,83,0.00,40.00,2,1,8,0.78
2013-5-18,50,45,41,48,44,41,100,96,84,0.00,40.00,2,1,9,0.06
2013-5-19,58,48,39,49,45,39,100,91,66,0.00,40.00,4,2,14,0.05
2013-5-20,75,53,39,49,42,35,100,75,24,0.00,40.00,4,2,20,0.01
2013-5-21,48,42,33,44,41,33,100,97,82,0.00,40.00,3,2,10,0.41
2013-5-22,44,35,32,37,34,32,100,94,76,0.00,40.00,4,1,12,0.78
2013-5-23,46,39,32,41,37,32,100,93,72,0.00,40.00,2,1,8,0.98
2013-5-24,52,42,34,47,40,34,100,92,68,0.00,40.00,2,1,14,0.28
2013-5-25,62,46,37,44,39,35,100,80,46,0.00,40.00,3,1,10,0.03
2013-5-26,63,47,36,48,42,36,100,84,47,0.00,40.00,4,2,14,0.00
2013-5-27,55,47,41,50,46,41,100,98,83,0.00,40.00,2,1,10,0.35
2013-5-28,57,48,39,46,42,39,100,84,56,0.00,40.00,5,2,20,0.23
2013-5-29,50,44,39,50,44,39,100,99,96,0.00,40.00,3,1,11,0.61
2013-5-30,51,44,38,48,43,38,100,96,83,0.00,40.00,2,1,9,0.28
2013-5-31,68,50,38,46,42,38,100,79,39,0.00,40.00,4,2,14,0.06
2013-6-1,75,53,35,47,42,35,100,72,35,0.00,40.00,4,2,20,0.01
2013-6-2,67,51,39,49,44,39,100,78,47,0.00,40.00,3,2,13,0.00
2013-6-3,76,56,35,48,43,35,100,69,32,0.00,40.00,4,2,14,0.00
2013-6-4,84,62,37,52,44,37,100,63,22,0.00,40.00,3,2,16,0.00
2013-6-5,85,64,44,53,48,42,100,65,23,0.00,40.00,4,2,15,0.00
2013-6-6,86,64,44,53,50,44,100,69,29,0.00,40.00,4,2,15,0.00
2013-6-7,72,56,42,53,46,37,100,74,34,0.00,40.00,4,2,16,0.00
2013-6-8,80,59,42,48,42,27,100,64,14,0.00,40.00,4,2,17,0.00
2013-6-9,74,55,42,47,41,29,100,68,21,0.00,40.00,4,2,17,0.00
2013-6-10,74,55,38,45,41,38,100,65,29,0.00,40.00,4,2,16,0.00
2013-6-11,54,46,41,46,41,36,100,83,54,0.00,40.00,3,2,14,0.01
2013-6-12,56,47,40,44,42,37,100,84,51,0.00,40.00,3,2,11,0.08
2013-6-13,59,49,41,47,43,40,99,83,53,0.00,40.00,3,2,13,0.05
2013-6-14,68,52,42,48,45,42,99,79,44,0.00,40.00,4,2,15,0.10
2013-6-15,84,56,38,50,42,36,100,70,19,0.00,40.00,4,2,16,0.01
2013-6-16,80,59,43,52,49,43,99,73,36,0.00,40.00,4,2,15,0.00
2013-6-17,77,56,44,51,44,39,99,71,29,0.00,40.00,4,2,14,0.00
2013-6-18,74,54,45,51,44,34,99,74,25,0.00,40.00,4,2,15,0.00
2013-6-19,60,50,44,46,43,39,99,80,49,0.00,40.00,3,2,14,0.03
2013-6-20,50,46,43,49,45,43,99,97,90,0.00,40.00,2,2,13,0.15
2013-6-22,79,66,47,54,48,43,99,57,30,0.00,40.00,3,1,11,0.00
2013-6-23,62,56,50,58,54,48,99,94,74,0.00,40.00,2,1,9,0.12
2013-6-24,62,54,47,54,49,45,99,84,56,0.00,40.00,3,1,12,0.21
2013-6-25,64,53,47,53,50,46,99,89,52,0.00,40.00,3,1,12,0.11
2013-6-26,68,55,48,56,51,48,99,88,56,0.00,40.00,2,1,11,0.14
2013-6-27,74,58,48,59,53,48,99,87,51,0.00,40.00,3,1,15,0.03
2013-6-28,91,63,48,62,55,48,99,82,29,0.00,40.00,3,1,13,0.01
2013-6-29,91,70,56,63,58,52,99,72,31,0.00,40.00,4,2,15,0.00
2013-6-30,97,67,53,62,57,53,99,76,25,0.00,40.00,3,1,15,0.00
2013-7-1,97,72,59,63,57,50,92,63,23,0.00,40.00,3,2,17,0.00
2013-7-2,96,73,61,65,60,51,99,70,23,0.00,40.00,3,2,14,0.00
2013-7-3,88,69,54,57,49,32,99,58,16,0.00,40.00,4,2,21,0.00
2013-7-4,75,62,49,50,48,46,94,62,38,0.00,40.00,4,2,18,0.00
2013-7-5,75,56,48,50,48,46,97,77,38,0.00,40.00,4,2,17,0.00
2013-7-6,82,58,46,54,50,45,99,78,36,0.00,40.00,4,1,16,0.00
2013-7-7,84,60,45,56,50,44,99,76,35,0.00,40.00,4,2,16,0.00
2013-7-8,84,60,49,55,50,-100,99,78,34,0.00,40.00,4,2,17,0.00
2013-7-9,92,63,46,56,52,46,99,76,25,0.00,40.00,3,1,13,0.00
2013-7-10,84,64,48,55,44,-100,99,59,27,0.00,40.00,4,2,15,0.00
2013-7-11,75,58,42,45,41,27,97,60,17,0.00,40.00,4,2,16,0.00
2013-7-12,70,57,43,47,43,40,97,64,39,0.00,40.00,4,2,13,0.00
2013-7-13,84,62,37,46,41,34,98,54,19,0.00,40.00,3,2,12,0.00
2013-7-14,90,74,43,48,42,38,93,36,17,0.00,40.00,4,2,13,0.00
2013-7-15,91,78,50,51,47,44,81,36,22,0.00,40.00,3,2,11,0.00
2013-7-16,86,74,56,58,49,38,85,47,18,0.00,40.00,3,2,11,0.00
2013-7-17,78,62,50,58,54,49,99,78,49,0.00,40.00,4,2,17,0.00
2013-7-18,88,70,49,55,47,40,97,52,20,0.00,40.00,4,2,14,0.00
2013-7-19,91,67,43,55,50,42,97,62,24,0.00,40.00,4,2,15,0.00
2013-7-20,87,65,48,54,49,-100,98,65,30,0.00,40.00,4,2,17,0.00
2013-7-21,86,67,47,55,52,46,98,64,32,0.00,40.00,4,2,17,0.00
2013-7-22,88,67,50,55,52,49,97,65,27,0.00,40.00,4,2,13,0.00
2013-7-23,94,67,46,55,50,45,98,63,22,0.00,40.00,3,2,14,0.00
2013-7-24,93,70,46,53,50,45,96,56,19,0.00,40.00,4,2,18,0.00
2013-7-25,92,69,46,49,45,34,95,54,13,0.00,40.00,4,2,16,0.00
2013-7-26,93,68,45,49,46,40,93,54,19,0.00,40.00,4,2,18,0.00
2013-7-27,84,69,48,48,44,39,91,46,20,0.00,40.00,4,2,15,0.00
2013-7-28,79,59,43,49,47,42,97,71,27,0.00,40.00,4,2,15,0.00
2013-7-29,82,60,50,52,49,45,95,72,31,0.00,40.00,4,2,17,0.00
2013-7-30,86,64,48,55,51,47,96,68,33,0.00,40.00,4,2,14,0.00
2013-7-31,79,63,49,60,55,48,96,78,49,0.00,40.00,2,1,11,0.00
2013-8-1,60,55,50,57,53,49,97,93,76,0.00,40.00,3,1,11,0.00
2013-8-2,63,55,49,53,50,48,97,85,67,0.00,40.00,3,2,14,0.00
2013-8-3,75,61,51,59,54,50,96,80,49,0.00,40.00,2,1,11,0.00
2013-8-4,88,63,48,59,53,47,98,77,28,0.00,40.00,3,1,11,0.00
2013-8-5,91,66,50,59,53,49,98,71,24,0.00,40.00,4,2,14,0.00
2013-8-6,93,65,48,54,50,43,97,67,18,0.00,40.00,4,2,16,0.00
2013-8-7,93,66,46,52,49,44,95,62,22,0.00,40.00,4,2,16,0.00
2013-8-8,86,66,47,57,52,45,94,66,34,0.00,40.00,4,2,16,0.00
2013-8-9,82,64,50,60,55,49,97,75,43,0.00,40.00,3,2,15,0.16
2013-8-10,78,64,51,65,58,50,97,82,55,0.00,40.00,3,2,15,0.33
2013-8-11,78,62,55,59,56,53,96,82,51,0.00,40.00,3,2,13,0.01
2013-8-12,85,63,51,57,52,46,95,74,28,0.00,40.00,3,1,13,0.01
2013-8-13,91,60,50,54,48,-100,96,73,17,0.00,40.00,3,1,11,0.00
2013-8-14,82,64,48,56,47,41,83,60,26,0.00,40.00,3,1,17,0.00
2013-8-15,79,58,55,62,44,-100,96,75,42,0.00,40.00,3,1,15,0.03
2013-8-16,88,57,48,60,48,-100,97,83,28,0.00,40.00,4,1,14,0.01
2013-8-17,81,60,50,58,50,-100,96,77,38,0.00,40.00,3,2,12,0.00
2013-8-18,86,61,48,52,50,47,95,72,28,0.00,40.00,3,2,12,0.00
2013-8-19,83,54,48,52,38,-100,95,74,27,0.00,40.00,4,2,16,0.00
2013-8-20,83,59,48,49,45,-100,95,70,26,0.00,40.00,4,2,16,0.00
2013-8-21,91,61,43,54,47,41,95,68,18,0.00,40.00,2,1,10,0.00
2013-8-22,82,63,49,58,48,39,78,60,23,0.00,40.00,2,1,10,0.00
2013-8-23,79,60,53,57,54,50,96,83,41,0.00,40.00,3,1,15,0.04
2013-8-24,77,57,50,53,47,-100,95,75,39,0.00,40.00,3,2,16,0.01
2013-8-25,69,54,46,54,50,44,96,86,55,0.00,40.00,2,1,9,0.03
2013-8-26,73,59,50,58,49,43,96,74,41,0.00,40.00,3,1,20,0.02
2013-8-27,66,56,54,53,50,47,87,80,64,0.00,40.00,2,1,5,0.01
2013-8-28,79,70,60,60,57,53,95,67,40,0.00,40.00,3,2,8,0.11
2013-8-29,68,60,55,62,57,54,97,92,74,0.00,40.00,2,1,13,0.43
2013-8-30,77,59,49,57,54,48,96,85,44,0.00,40.00,3,1,11,0.05
2013-8-31,90,55,44,54,45,-100,96,79,24,0.00,40.00,3,1,14,0.00
2013-9-1,88,63,48,56,50,46,94,70,28,0.00,40.00,3,2,14,0.00
2013-9-2,82,62,49,55,52,47,95,74,31,0.00,40.00,3,2,12,0.00
2013-9-3,79,62,54,57,54,53,95,80,46,0.00,40.00,4,1,15,0.00
2013-9-4,78,60,46,56,53,45,95,78,37,0.00,40.00,3,2,18,0.00
2013-9-5,65,58,51,58,55,50,95,90,73,0.00,40.00,2,1,16,1.55
2013-9-6,57,53,50,55,52,49,96,94,92,0.00,40.00,2,1,8,2.94
2013-9-7,78,56,45,59,50,-100,95,85,51,0.00,40.00,2,1,10,0.03
2013-9-8,82,61,47,58,53,45,96,79,37,0.00,40.00,3,2,15,0.01
2013-9-9,83,62,47,60,53,45,96,76,41,0.00,40.00,4,2,15,0.00
2013-9-10,90,66,50,55,49,46,96,63,23,0.00,40.00,3,2,18,0.00
2013-9-11,95,68,57,54,50,46,76,57,19,0.00,40.00,3,2,14,0.00
2013-9-12,94,69,51,58,53,47,94,62,27,0.00,40.00,2,2,10,0.00
2013-9-13,83,65,51,59,55,50,95,76,42,0.00,40.00,3,2,13,0.00
2013-9-14,94,65,50,61,49,-100,96,70,20,0.00,40.00,3,2,14,0.00
2013-9-15,74,62,55,60,55,50,95,80,61,0.00,40.00,4,2,14,0.00
2013-9-16,63,54,49,55,51,47,95,89,68,0.00,40.00,2,1,10,0.07
2013-9-17,56,50,46,50,47,43,95,88,67,0.00,40.00,3,1,13,0.08
2013-9-18,47,44,39,45,42,38,95,93,91,0.00,40.00,2,1,8,0.19
2013-9-19,76,51,34,47,39,33,95,72,24,0.00,40.00,3,2,15,0.01
2013-9-20,76,53,41,49,43,38,95,73,28,0.00,40.00,3,2,13,0.01
2013-9-21,67,52,46,50,45,-100,96,83,47,0.00,40.00,3,1,9,0.03
2013-9-22,50,47,44,48,45,42,96,93,80,0.00,40.00,4,1,15,0.50
2013-9-23,51,47,43,49,45,41,96,94,90,0.00,40.00,2,1,8,0.53
2013-9-24,55,45,40,43,42,38,95,88,63,0.00,40.00,2,1,8,0.13
2013-9-25,56,44,39,46,40,38,95,88,69,0.00,40.00,3,1,13,0.35
2013-9-26,61,44,34,43,39,33,95,83,50,0.00,40.00,3,1,12,0.01
2013-9-27,47,41,32,45,40,31,95,94,90,0.00,40.00,3,1,13,0.31
2013-9-28,52,47,41,50,44,-100,95,92,88,0.00,40.00,6,2,32,2.59
2013-9-29,46,42,40,45,40,38,95,94,93,0.00,40.00,3,1,17,2.68
2013-9-30,44,41,38,43,39,37,95,94,91,0.00,40.00,3,1,17,2.01
2013-10-1,45,40,38,41,38,36,94,92,86,0.00,40.00,2,1,8,0.86
2013-10-2,51,40,35,41,36,33,94,88,58,0.00,40.00,4,1,13,0.02
2013-10-3,56,42,37,41,38,35,95,87,56,0.00,40.00,3,1,12,0.01
2013-10-4,65,41,32,44,36,31,95,86,37,0.00,40.00,2,1,8,0.00
2013-10-5,72,42,32,41,35,30,95,81,31,0.00,40.00,3,1,14,0.00
2013-10-6,72,47,33,42,36,31,95,69,25,0.00,40.00,3,1,17,0.00
2013-10-7,49,44,41,45,41,33,95,88,56,0.00,40.00,3,2,19,0.28
2013-10-8,43,40,32,41,38,30,95,93,89,0.00,40.00,3,1,13,0.59
2013-10-9,57,39,30,43,34,29,95,85,50,0.00,40.00,2,1,8,0.01
2013-10-10,57,43,32,44,38,31,95,83,42,0.00,40.00,4,1,16,0.04
2013-10-11,52,42,37,42,39,36,96,89,68,0.00,40.00,2,1,8,0.04
2013-10-12,47,40,37,42,37,-100,95,90,82,0.00,40.00,2,1,8,0.09
2013-10-13,60,40,30,42,35,29,96,85,45,0.00,40.00,3,1,9,0.01
2013-10-14,66,40,30,43,35,29,97,85,34,0.00,40.00,2,1,8,0.00
2013-10-15,62,40,32,42,34,30,96,82,36,0.00,40.00,3,1,10,0.00
2013-10-16,65,41,32,44,36,31,96,87,38,0.00,40.00,2,1,9,0.00
2013-10-17,67,43,32,46,38,31,97,85,40,0.00,40.00,1,1,8,0.00
2013-10-18,68,44,32,46,37,31,96,83,34,0.00,40.00,2,1,10,0.00
2013-10-19,70,45,33,43,34,-100,95,74,31,0.00,40.00,3,1,10,0.00
2013-10-20,78,51,33,48,40,32,96,75,27,0.00,40.00,2,1,9,0.00
2013-10-21,77,50,37,50,41,35,94,77,28,0.00,40.00,2,2,10,0.00
2013-10-22,73,49,37,49,41,35,94,77,33,0.00,40.00,2,1,10,0.00
2013-10-23,73,49,37,47,41,34,92,77,35,0.00,40.00,2,2,10,0.00
2013-10-24,73,47,35,50,40,33,95,80,38,0.00,40.00,2,1,10,0.00
2013-10-25,67,46,34,48,40,33,96,83,42,0.00,40.00,2,1,8,0.00
2013-10-26,69,44,31,43,33,-100,96,74,39,0.00,40.00,2,1,9,0.00
2013-10-27,44,38,30,42,37,29,96,95,91,0.00,40.00,2,1,12,0.11
2013-10-28,52,39,31,39,28,-100,96,72,37,0.00,40.00,3,2,16,0.02
2013-10-29,55,35,27,31,27,24,95,78,37,0.00,40.00,3,1,11,0.00
2013-10-30,55,37,27,36,30,26,95,77,41,0.00,40.00,2,1,12,0.00
2013-10-31,49,42,36,46,40,33,96,94,85,0.00,40.00,2,1,8,0.13
2013-11-1,64,42,32,48,38,31,96,89,47,0.00,40.00,2,1,7,0.05
2013-11-2,43,38,32,42,35,-100,96,92,90,0.00,40.00,4,2,21,0.99
2013-11-3,37,34,32,33,31,30,95,92,80,0.00,40.00,3,2,14,0.07
2013-11-4,45,34,30,34,31,28,95,89,63,0.00,40.00,2,1,7,0.29
2013-11-5,48,38,32,43,37,31,95,94,84,0.00,40.00,2,1,10,0.28
2013-11-6,51,41,34,44,38,33,95,91,76,0.00,40.00,1,1,8,0.20
2013-11-7,43,40,37,42,38,35,96,94,89,0.00,40.00,3,2,16,1.27
2013-11-8,41,37,32,39,35,30,94,94,91,0.00,40.00,2,1,11,0.35
2013-11-9,43,36,32,40,33,-100,95,92,87,0.00,40.00,1,1,10,0.01
2013-11-10,54,41,37,48,40,35,96,94,81,0.00,40.00,2,1,7,0.00
2013-11-11,48,40,33,39,36,32,96,85,68,0.00,40.00,4,2,17,0.00
2013-11-12,54,43,36,48,41,35,95,91,79,0.00,40.00,3,1,21,0.13
2013-11-13,50,39,34,42,37,33,95,92,72,0.00,40.00,2,1,10,0.01
2013-11-14,42,36,33,38,35,32,95,92,81,0.00,40.00,2,1,9,0.01
2013-11-15,36,34,32,35,32,30,95,94,91,0.00,40.00,3,2,16,0.28
2013-11-16,36,32,31,33,29,-100,95,91,88,0.00,40.00,5,2,28,0.35
2013-11-17,40,35,32,37,33,30,93,92,85,0.00,40.00,3,2,13,0.42
2013-11-18,45,40,37,42,38,35,93,92,87,0.00,40.00,2,1,11,0.52
2013-11-19,44,38,28,41,35,27,94,91,85,0.00,40.00,3,2,13,0.63
2013-11-20,38,28,20,27,22,13,94,80,37,0.00,40.00,2,1,10,0.03
2013-11-21,42,26,18,17,11,0,77,58,21,0.00,40.00,2,2,15,0.00
2013-11-22,46,29,19,17,11,3,84,53,18,0.00,40.00,3,2,18,0.00
2013-11-23,48,33,26,24,14,-100,81,51,21,0.00,40.00,3,2,14,0.00
2013-11-24,57,34,28,27,24,23,88,70,28,0.00,40.00,2,1,10,0.00
2013-11-25,52,34,29,28,26,23,88,72,35,0.00,40.00,2,2,11,0.00
2013-11-26,50,34,28,30,26,23,86,74,35,0.00,40.00,2,1,9,0.00
2013-11-27,51,37,30,30,28,25,91,73,36,0.00,40.00,3,2,10,0.00
2013-11-28,52,34,28,33,28,26,94,81,38,0.00,40.00,2,2,10,0.00
2013-11-29,43,34,28,36,31,26,94,88,73,0.00,40.00,2,1,7,0.00
2013-11-30,45,37,32,39,32,-100,93,88,76,0.00,40.00,2,1,6,0.03
2013-12-1,45,41,36,41,38,34,92,89,87,0.00,40.00,4,2,26,2.88
2013-12-2,39,30,27,36,27,25,93,89,83,0.00,40.00,3,2,23,1.04
2013-12-3,32,24,12,25,20,10,92,86,66,0.00,40.00,2,1,9,0.01
2013-12-4,27,14,9,19,11,6,91,88,71,0.00,40.00,2,1,8,0.00
2013-12-5,22,13,5,16,8,2,90,83,70,0.00,40.00,2,1,10,0.00
2013-12-6,20,13,10,11,7,4,82,76,66,0.00,40.00,3,2,15,0.00
2013-12-7,24,8,1,7,0,-100,87,74,41,0.00,40.00,2,1,15,0.00
2013-12-8,28,10,-1,13,4,-5,90,80,42,0.00,40.00,1,1,8,0.00
2013-12-9,26,24,8,24,21,5,92,90,85,0.00,40.00,1,1,8,0.00
2013-12-10,33,29,24,29,26,22,93,90,83,0.00,40.00,3,1,12,0.00
2013-12-11,39,28,20,35,25,18,94,91,75,0.00,40.00,2,1,7,0.01
2013-12-12,37,31,27,32,28,24,93,90,82,0.00,40.00,2,1,11,0.09
2013-12-13,42,35,32,39,33,29,93,90,82,0.00,40.00,1,1,7,0.39
2013-12-14,45,34,31,40,30,-100,93,90,83,0.00,40.00,1,1,6,0.12
2013-12-15,44,40,37,40,37,35,93,91,87,0.00,40.00,2,2,10,0.19
2013-12-16,45,34,31,38,32,29,93,92,77,0.00,40.00,2,1,7,0.01
2013-12-17,33,32,31,31,30,29,93,93,93,0.00,40.00,2,2,9,0.01
2013-12-18,39,32,25,32,28,22,94,85,70,0.00,40.00,3,2,15,0.01
2013-12-19,33,24,20,24,21,18,94,87,60,0.00,40.00,2,1,9,0.00
2013-12-20,32,28,20,30,26,18,94,92,91,0.00,40.00,2,1,7,0.00
2013-12-21,39,34,32,36,30,-100,93,90,86,0.00,40.00,2,1,11,0.08
2013-12-22,39,34,32,36,32,30,93,92,88,0.00,40.00,2,1,7,0.67
2013-12-23,40,35,33,37,33,30,92,91,89,0.00,40.00,2,2,18,1.01
2013-12-24,40,30,25,32,28,23,94,91,71,0.00,40.00,3,1,12,0.05
2013-12-25,42,29,24,38,27,22,94,92,84,0.00,40.00,1,1,9,0.07
2013-12-26,29,29,28,27,27,26,93,93,93,0.00,40.00,1,1,7,0.00
2013-12-27,45,35,29,37,32,27,94,90,68,0.00,40.00,3,2,10,0.22
2013-12-28,46,33,30,34,29,-100,95,89,63,0.00,40.00,2,1,6,0.10
2013-12-29,42,29,27,32,26,25,93,90,61,0.00,40.00,1,1,7,0.04
2013-12-30,43,37,33,39,35,31,94,90,78,0.00,40.00,2,1,7,0.21
2013-12-31,38,35,32,36,33,30,94,93,92,0.00,40.00,2,1,8,0.20
2014-1-1,44,32,27,42,30,26,94,93,90,0.00,40.00,2,1,8,0.03
2014-1-2,46,38,32,41,34,30,94,85,65,0.00,40.00,3,1,12,0.19